Orbital Elements at Epoch 2459200.5 (2020-Dec-17.0) TDB
Reference: JPL 31 (heliocentric ecliptic J2000)
Element | Value | Uncertainty (1-sigma) | Units |
e | .2492989469924663 | 2.9571e-08 | |
a | 2.340921822361845 | 5.5048e-09 | au |
q | 1.757332477055352 | 6.9065e-08 | au |
i | 2.135003078814175 | 3.0397e-06 | deg |
node | 100.6981212525591 | 0.00010365 | deg |
peri | 225.7786558341648 | 0.00010387 | deg |
M | 145.7653533077341 | 7.2186e-06 | deg |
tp | 2458670.799233944855 (2019-Jul-06.29923394) | 2.5761e-05 | TDB |
period | 1308.21399909257 3.58 | 4.6145e-06 1.263e-08 | d yr |
n | .2751843354754729 | 9.7066e-10 | deg/d |
Q | 2.924511167668338 | 6.8771e-09 | au |
|
| | Orbit Determination Parameters
Additional Information
|